Wuchia Observatory, Taiwan

10:56 AM CST on June 18, 2018 (GMT +0800)
Ching Chuan Kang Air Base

Weather History for RCMQ - November, 2017

Change the Weather History Date:

Wednesday, November 15, 2017

  Actual Average Record
Temperature  
Mean Temperature 74 °F -  
Max Temperature 80 °F - - ()
Min Temperature 68 °F - - ()
Cooling Degree Days 9    
Growing Degree Days 24 (Base 50)    
Moisture  
Dew Point 67 °F    
Average Humidity 78    
Maximum Humidity 94    
Minimum Humidity 61    
Precipitation  
Precipitation 0.00 in - - ()
Sea Level Pressure  
Sea Level Pressure 29.96 in    
Wind  
Wind Speed 7 mph ()    
Max Wind Speed 17 mph    
Max Gust Speed 24 mph    
Visibility 5.4 miles    
Events Rain    
T = Trace of Precipitation, MM = Missing Value Source: Averaged Metar Reports

Daily Weather History Graph

Daily Weather History Graph

Search for Another Location

Airport or City:

Astronomy

Nov. 15, 2017 Rise Set
Actual Time 6:12 AM CST 5:11 PM CST
Civil Twilight 5:48 AM CST 5:35 PM CST
Nautical Twilight 5:21 AM CST 6:02 PM CST
Astronomical Twilight 4:54 AM CST 6:29 PM CST
Moon 3:07 AM CST (11/15) 3:22 PM CST (11/15)
Length of Visible Light 11h 46m
Length of Day
10h 58m
Waning Crescent, 10% of the Moon is Illuminated
Nov 15
Waning Crescent
Nov 18
New
Nov 27
First Quarter
Dec 3
Full
Dec 10
Last Quarter

Hourly Weather History & Observations

Time (CST) Temp. Heat Index Dew Point Humidity Pressure Visibility Wind Dir Wind Speed Gust Speed Precip Events Conditions
12:00 AM 69.8 °F - 66.2 °F 88% 29.98 in 3.7 mi North 8.1 mph - N/A   Scattered Clouds
1:00 AM 69.8 °F - 66.2 °F 88% 29.98 in 3.7 mi North 5.8 mph - N/A   Scattered Clouds
2:00 AM 69.8 °F - 66.2 °F 88% 29.95 in 3.7 mi North 8.1 mph - N/A   Scattered Clouds
3:00 AM 69.8 °F - 66.2 °F 88% 29.95 in 3.7 mi North 6.9 mph - N/A   Scattered Clouds
4:00 AM 69.8 °F - 66.2 °F 88% 29.95 in 3.7 mi NNE 8.1 mph - N/A   Mostly Cloudy
4:30 AM 69.8 °F - 66.2 °F 88% 29.95 in 3.7 mi North 5.8 mph - N/A   Mostly Cloudy
5:00 AM 68.0 °F - 66.2 °F 94% 29.95 in 3.7 mi NNE 6.9 mph - N/A   Scattered Clouds
5:30 AM 68.0 °F - 64.4 °F 88% 29.95 in 3.7 mi North 5.8 mph - N/A   Scattered Clouds
6:00 AM 68.0 °F - 64.4 °F 88% 29.95 in 3.7 mi North 6.9 mph - N/A   Scattered Clouds
6:30 AM 68.0 °F - 64.4 °F 88% 29.98 in 3.7 mi North 9.2 mph - N/A   Scattered Clouds
7:00 AM 69.8 °F - 66.2 °F 88% 29.98 in 4.3 mi North 6.9 mph - N/A   Mostly Cloudy
7:30 AM 69.8 °F - 66.2 °F 88% 30.01 in 4.3 mi North 15.0 mph - N/A   Mostly Cloudy
8:00 AM 71.6 °F - 66.2 °F 83% 30.01 in 5.6 mi NE 13.8 mph - N/A   Mostly Cloudy
8:30 AM 75.2 °F - 66.2 °F 73% 30.01 in 6.2 mi NE 10.4 mph - N/A   Mostly Cloudy
9:00 AM 78.8 °F - 66.2 °F 65% 30.01 in 6.2 mi NNE 4.6 mph - N/A   Mostly Cloudy
9:30 AM 78.8 °F - 66.2 °F 65% 30.01 in 6.2 mi North 4.6 mph - N/A   Mostly Cloudy
10:00 AM 80.6 °F 82.7 °F 66.2 °F 61% 30.01 in 6.2 mi North 6.9 mph - N/A   Mostly Cloudy
10:30 AM 80.6 °F 82.7 °F 66.2 °F 61% 30.01 in 6.2 mi North 10.4 mph - N/A   Scattered Clouds
11:00 AM 80.6 °F 83.2 °F 68.0 °F 65% 29.98 in 6.2 mi NNE 8.1 mph - N/A   Mostly Cloudy
11:30 AM 80.6 °F 83.2 °F 68.0 °F 65% 29.98 in 6.2 mi NNE 5.8 mph - N/A   Mostly Cloudy
12:00 PM 80.6 °F 83.2 °F 68.0 °F 65% 29.98 in 6.2 mi ENE 4.6 mph - N/A   Mostly Cloudy
12:30 PM 80.6 °F 83.2 °F 68.0 °F 65% 29.95 in 6.2 mi NNW 10.4 mph - N/A   Mostly Cloudy
1:00 PM 80.6 °F 83.2 °F 68.0 °F 65% 29.95 in 6.2 mi North 11.5 mph 23.0 mph N/A   Mostly Cloudy
1:30 PM 80.6 °F 83.2 °F 68.0 °F 65% 29.95 in 6.2 mi North 12.7 mph 24.2 mph N/A   Mostly Cloudy
2:00 PM 80.6 °F 83.2 °F 68.0 °F 65% 29.95 in 6.2 mi North 11.5 mph 23.0 mph N/A   Mostly Cloudy
2:30 PM 80.6 °F 83.2 °F 68.0 °F 65% 29.95 in 6.2 mi North 10.4 mph 21.9 mph N/A   Mostly Cloudy
3:00 PM 78.8 °F - 77.0 °F 94% 29.74 in 5.0 mi Calm Calm - N/A Rain Light Rain
3:30 PM 78.8 °F - 77.0 °F 94% 29.77 in 5.0 mi Calm Calm - N/A Rain Light Rain
4:00 PM 77.0 °F - 68.0 °F 74% 29.95 in 6.2 mi North 17.3 mph - N/A   Scattered Clouds
5:00 PM 77.0 °F - 68.0 °F 74% 29.95 in 6.2 mi North 13.8 mph - N/A   Scattered Clouds
5:30 PM 73.4 °F - 66.2 °F 78% 29.95 in 6.2 mi North 10.4 mph - N/A   Mostly Cloudy
6:00 PM 73.4 °F - 64.4 °F 73% 29.95 in 6.2 mi North 6.9 mph - N/A   Mostly Cloudy
6:30 PM 73.4 °F - 64.4 °F 73% 29.95 in 6.2 mi NNE 6.9 mph - N/A   Mostly Cloudy
7:00 PM 73.4 °F - 66.2 °F 78% 29.95 in 6.2 mi North 5.8 mph - N/A   Mostly Cloudy
7:30 PM 71.6 °F - 64.4 °F 78% 29.95 in 6.2 mi North 3.5 mph - N/A   Mostly Cloudy
8:00 PM 71.6 °F - 66.2 °F 83% 29.98 in 6.2 mi North 6.9 mph - N/A   Scattered Clouds
8:30 PM 71.6 °F - 64.4 °F 78% 29.98 in 6.2 mi NNW 6.9 mph - N/A   Scattered Clouds
9:00 PM 71.6 °F - 64.4 °F 78% 30.01 in 6.2 mi North 12.7 mph - N/A   Scattered Clouds
9:30 PM 71.6 °F - 66.2 °F 83% 30.01 in 6.2 mi North 9.2 mph - N/A   Scattered Clouds
10:00 PM 71.6 °F - 66.2 °F 83% 30.01 in 6.2 mi North 8.1 mph - N/A   Scattered Clouds
11:00 PM 69.8 °F - 66.2 °F 88% 29.98 in 6.2 mi North 4.6 mph - N/A   Scattered Clouds